User: anonymous   Login
Location: Lawrence Hall of Science
(37.8785°N, 122.2415°W)
Time: 10:21:46
(UTC-08:00)
Language:

Cosmos 2098 Rocket - Orbit

View from above orbital plane
View from above orbital plane
View from above satellite
View from above satellite

Ground track
Ground track

The orbit data is extracted from the following two-line orbital elements,

1 20775U 90078B   14352.36429590  .00010998  00000-0  59736-3 0  5859
2 20775 082.9358 071.3054 0627968 255.5271 171.6242 14.20701078218737
Epoch (UTC): 18 December 2014 08:44:35
Eccentricity: 0.0627968
inclination: 82.9358°
perigee height: 371 km
apogee height: 1275 km
right ascension of ascending node: 71.3054°
argument of perigee: 255.5271°
revolutions per day: 14.20701078
mean anomaly at epoch: 171.6242°
orbit number at epoch: 21873

The dashed part of the orbit path shows where the satellite is in the earth's shadow,  

DLR